Location: Kawakawa
(35.3830°S, 174.0670°E)
Time: 05:31:58
(UTC+13:00)

Tiangong 2 - Pass Details

Date: 24 January 2019
Orbit: 381 x 390 km, 42.8° (Epoch: 19 February)

Event Time Altitude Azimuth Distance (km) Brightness Sun altitude
Rises 21:04:46 0° 246° (WSW) 2,287 7.7 -5.8°
Reaches altitude 10° 21:06:52 10° 249° (WSW) 1,425 5.7 -6.2°
Maximum altitude 21:10:02 60° 329° (NNW) 450 1.4 -6.7°
Drops below altitude 10° 21:13:11 10° 50° (NE) 1,407 3.3 -7.3°
Enters shadow 21:13:17 - 50° (NE) 1,451 3.3 -7.3°
